GFSNIL_850_spd_000.txt.gz
Wind_Speed
10 8 11 26 30 39 24 21 18 16 21 26 26 24 25 23 19 19 20 21 20 21
22 27 28 29 27 19 21 20 16 19 24 27 25 23 23 21 21 21 20 21 23 22
30 32 37 34 30 23 23 19 18 25 26 23 21 21 19 21 20 22 24 26 24 25
29 32 33 28 20 24 22 24 25 23 25 19 18 17 18 21 22 24 26 22 18 20
25 28 32 28 28 32 27 22 17 21 22 19 17 20 21 24 26 26 25 25 27 31
33 29 29 27 28 20 12 13 16 15 15 16 21 21 23 24 24 22 23 27 29 31
37 32 25 23 17 18 32 17 11 15 15 20 20 22 24 24 23 24 25 28 35 34
35 31 29 26 29 26 14 7 5 14 19 18 21 22 23 24 23 27 34 33 27 29
33 34 32 30 26 16 5 4 9 19 18 20 20 23 20 24 30 31 30 30 28 26
37 38 31 25 13 15 6 17 14 17 20 18 19 20 26 29 30 30 29 28 27 26
35 34 25 17 15 9 12 13 17 17 18 17 21 25 28 28 28 28 28 27 27 28
31 28 19 16 16 12 18 13 15 16 16 19 24 28 30 28 27 26 25 27 28 23
30 20 16 13 16 15 9 16 16 14 16 20 25 28 27 26 27 26 27 25 22 19
24 17 13 11 8 11 16 15 12 13 19 24 26 25 24 26 22 21 22 21 19 16

GFSNIL_850_spd_003.txt.gz
Wind_Speed
15 19 21 21 25 26 28 24 22 20 20 18 21 21 20 20 20 20 17 15 17 20
19 23 25 27 29 31 30 25 17 13 17 19 19 18 17 18 16 16 18 21 22 21
17 18 22 26 28 29 23 23 22 24 21 12 16 19 18 16 16 20 22 23 23 22
24 28 31 31 30 26 22 18 17 15 10 19 14 15 18 19 20 23 24 23 21 23
31 33 33 30 23 17 16 17 18 25 20 11 14 16 17 21 23 24 25 23 24 28
34 31 35 32 22 20 21 24 26 19 7 11 16 18 19 22 24 28 26 24 29 35
31 32 32 29 21 19 24 23 12 8 6 13 19 18 22 25 26 23 25 31 33 31
31 32 32 28 21 18 18 16 10 7 10 18 18 22 22 23 23 27 31 32 30 27
31 33 31 27 18 13 15 11 8 13 17 17 21 20 21 23 28 30 30 29 29 26
30 29 29 23 13 11 11 9 12 16 17 19 21 22 23 26 29 29 29 29 27 27
29 31 26 18 10 8 15 13 18 14 16 22 22 23 25 29 26 25 25 25 26 25
30 29 19 16 13 12 16 16 12 13 18 21 21 24 27 27 28 28 25 21 21 18
32 22 16 15 14 13 11 11 11 18 17 19 21 24 23 25 25 25 22 20 18 15
25 17 13 12 15 17 16 16 14 12 16 19 21 21 22 24 22 20 21 20 19 17

GFSNIL_850_spd_006.txt.gz
Wind_Speed
11 14 18 20 23 27 28 27 25 22 23 23 24 27 14 14 17 15 16 16 17 16
18 21 21 24 29 32 32 28 24 19 20 22 22 9 12 15 15 15 15 17 18 20
24 25 27 31 33 32 29 21 19 16 25 18 19 13 10 12 14 16 17 19 21 21
24 28 28 30 33 31 21 17 20 21 25 17 16 8 11 14 15 19 20 24 24 23
26 28 30 32 31 27 18 17 17 18 25 19 10 9 12 17 18 22 24 24 23 27
26 29 31 32 31 25 15 12 19 22 20 8 7 11 15 18 21 25 26 27 29 33
25 30 33 33 29 23 17 20 18 16 12 9 11 15 19 22 24 25 25 29 33 34
26 31 32 31 29 23 18 15 16 12 11 11 15 18 20 23 25 27 31 33 33 32
28 29 29 31 26 18 13 13 13 9 11 16 20 19 20 24 27 30 34 32 32 31
28 27 30 26 21 15 11 13 14 13 16 20 15 18 24 25 29 31 29 29 29 27
24 27 29 24 18 15 13 16 17 16 13 11 19 23 24 28 27 26 26 25 22 22
23 28 27 21 16 16 16 17 15 12 11 22 18 22 26 25 24 24 23 20 19 19
23 26 24 18 15 13 16 15 15 15 15 15 19 22 22 21 22 23 22 20 19 17
23 24 21 18 15 16 17 14 12 12 13 17 20 19 19 19 20 21 22 20 21 18

GFSNIL_850_spd_009.txt.gz
Wind_Speed
10 14 18 21 24 27 30 31 29 26 23 21 20 17 24 14 10 12 12 14 13 14
17 20 22 25 27 29 29 28 24 20 17 18 18 25 13 9 9 11 14 16 16 20
21 24 25 26 28 29 29 26 20 17 19 14 20 15 7 7 9 13 15 18 20 21
23 24 24 27 29 28 26 21 14 16 16 20 20 13 10 9 11 14 17 20 22 23
22 22 25 28 29 27 25 17 12 15 18 21 23 13 10 11 13 17 21 21 21 23
18 21 25 29 29 28 26 22 15 16 24 21 13 10 13 15 17 22 21 22 25 29
18 21 27 29 30 29 26 21 17 17 18 15 13 12 14 18 20 24 24 26 30 33
20 23 28 29 30 27 22 17 15 15 13 8 11 15 18 18 22 25 27 31 32 30
21 25 29 28 29 24 19 14 13 13 14 12 12 19 19 20 24 27 31 30 29 29
23 28 26 27 26 22 18 15 15 17 16 19 18 12 21 22 26 29 28 27 26 24
26 25 25 27 23 19 17 17 17 19 16 12 13 20 20 25 27 24 24 24 22 20
24 24 23 26 21 18 14 15 15 15 14 14 15 18 23 25 23 21 22 21 18 18
24 24 24 25 20 16 16 17 17 15 14 15 15 20 23 22 20 20 20 19 19 19
24 25 25 23 17 16 16 17 15 14 14 15 19 21 20 19 18 18 19 19 19 18